Regional Weather Roundup
Issued by NWS Cleveland, OH

Home | Current Version | Previous Version | Text Only | Print | Product List | Glossary Off
Versions: 1 2 3 4 5 6 7 8 9 10 11 12 13 14 15 16 17 18 19 20 21 22 23 24 25 26 27 28 29 30 31 32 33 34 35 36 37 38 39 40 41 42 43 44 45 46 47 48 49 50

000
ASUS41 KCLE 281012
RWRCLE
OHIO REGIONAL WEATHER ROUNDUP
NATIONAL WEATHER SERVICE WILMINGTON, OH
600 AM EDT SUN AUG 28 2016

NOTE: "FAIR" INDICATES FEW OR NO CLOUDS BELOW 12,000 FEET WITH NO
SIGNIFICANT WEATHER AND/OR OBSTRUCTIONS TO VISIBILITY.

OHZ001>008-015>018-024>027-034-035-043-044-281100-
   NORTHWEST OHIO

CITY           SKY/WX    TMP DP  RH WIND       PRES   REMARKS
DEFIANCE       MOCLDY    69  67  93 CALM      30.17R FOG
FINDLAY        FAIR      69  65  86 CALM      30.17R FOG
TOLEDO EXPRESS FOG       68  68 100 CALM      30.16R VSB 3/4
TOLEDO EXEC    FAIR      69  69 100 S3        30.17R FOG
LIMA           FAIR      68  68 100 CALM      30.18R
$$

OHZ009>014-019>023-028>033-038-089-281100-
   NORTHEAST OHIO

CITY           SKY/WX    TMP DP  RH WIND       PRES   REMARKS
CLE-HOPKINS    MOCLDY    70  66  87 CALM      30.19R
CLE-LAKEFRONT  FAIR      72  67  84 SW6       30.16R
CUY CO. ARPT   NOT AVBL
LORAIN-ELYRIA  FAIR      65  63  93 CALM      30.18R FOG
ASHTABULA      FAIR      67  67 100 CALM      30.19R
AKRON-CANTON   MOCLDY    70  65  84 NW6       30.19R
WOOSTER        FAIR      65  65 100 CALM      30.20R
MANSFIELD      FAIR      69  66  90 CALM      30.20R
YOUNGSTOWN     FAIR      69  66  90 N3        30.19R
$$

OHZ042-051>053-060>062-070>072-077>081-281100-
  SOUTHWEST OHIO

CITY           SKY/WX    TMP DP  RH WIND       PRES   REMARKS
CINC-COVINGTON MOCLDY    74  72  93 E3        30.15S
CINC-LUNKEN    FAIR      71  71 100 CALM      30.15S
HAMILTON       FAIR      68  66  93 CALM      30.17R
DAYTON         FAIR      69  68  96 CALM      30.19R
WRIGHT-PAT AFB PTCLDY    69  69 100 N2        30.17R
DAYTON GENERAL FAIR      69  66  90 CALM      30.17R
WILMINGTON     FAIR      68  67  96 NE3       30.17R
$$

OHZ036-037-039>041-045>050-054>059-063>069-073>076-082>088-281100-
  CENTRAL AND SOUTHEAST OHIO

CITY           SKY/WX    TMP DP  RH WIND       PRES   REMARKS
COLUMBUS       MOCLDY    68  67  96 N3        30.16R
OSU AIRPORT    FAIR      68  68 100 NW3       30.17R FOG
BOLTON FIELD   FAIR      67  67 100 CALM      30.17R
RICKENBACK AFB FAIR      68  68  99 NE3       30.16R
NEWARK         FAIR      67  66  97 E3        30.16R
MARION         FAIR      67  65  93 CALM      30.19R
LANCASTER      FAIR      67  66  97 CALM      30.17R
ZANESVILLE     FAIR      67  66  97 CALM      30.16S
NEW PHILLY     FAIR      69  66  90 CALM      30.18R FOG
$$



USA.gov is the U.S. government's official web portal to all federal, state and local government web resources and services.